Location: Unspecified
(48.7670°N, 0.0000°E)
Time: 14:24:17
(UTC+00:00)

Altair - Pass Details

Date: 27 June 2019
Orbit: 1501 x 1683 km, 47.2° (Epoch: 19 August)

Event Time Altitude Azimuth Distance (km) Brightness Sun altitude
Rises 01:01:47 0° 290° (WNW) 4,825 10.2 -16.7°
Reaches altitude 10° 01:05:09 10° 282° (WNW) 3,862 9.6 -16.6°
Maximum altitude 01:13:52 37° 221° (SW) 2,388 8.0 -16.2°
Drops below altitude 10° 01:22:46 10° 159° (SSE) 3,934 9.2 -15.7°
Sets 01:26:15 0° 151° (SSE) 4,923 9.8 -15.5°
